Hourly Data Report for June 14, 2017

FISHER BRANCH (AUT)
MANITOBA

51°05'00.100" N
97°33'16.200" W
253.00 m
50309J6
71442
WSZ

Download Data

Hourly Data (June 2017)
Hourly Data Report for June 14, 2017
TIME
LST
Temp Definition
°C
Dew Point Definition
°C
Rel Hum Definition
%
Precip. Amount Definition
mm

Wind Dir Definition
10's deg

Wind Spd Definition
km/h
Visibility Definition
km
Stn Press Definition
kPa
Hmdx Definition


Wind Chill Definition


Weather Definition


00:00 16.4 11.7 74 0.0 12 24   97.69     LegendNANA
01:00 14.3 11.7 85 0.8 9 21   97.42     LegendNANA
02:00 13.8 11.7 87 0.5 7 24   97.25     LegendNANA
03:00 13.1 11.7 91 1.5 7 25   97.17     LegendNANA
04:00 13.1 11.1 88 0.2 8 28   97.07     LegendNANA
05:00 13.1 11.7 91 0.0 9 27   97.02     LegendNANA
06:00 13.0 12.3 96 0.3 9 28   96.91     LegendNANA
07:00 13.8 13.2 96 0.5 10 26   96.87     LegendNANA
08:00 14.8 13.9 94 0.0 11 29   96.84     LegendNANA
09:00 15.7 14.9 95 0.4 12 23   96.83     LegendNANA
10:00 16.6 15.7 94 0.0 12 17   96.79     LegendNANA
11:00 18.7 16.9 90 0.0 11 18   96.73     LegendNANA
12:00 18.9 16.8 88 0.0 9 17   96.60     LegendNANA
13:00 19.5 16.6 83 0.0 9 25   96.60     LegendNANA
14:00 20.8 16.7 77 0.0 12 23   96.58 26   LegendNANA
15:00 21.5 15.4 68 1.1 13 12   96.51 26   LegendNANA
16:00 21.6 14.3 63 0.0 18 24   96.49 25   LegendNANA
17:00 16.6 15.1 91 5.3 21 17   96.48     LegendNANA
18:00 16.6 14.4 87 0.0 18 15   96.47     LegendNANA
19:00 16.6 13.4 81 0.0 18 19   96.49     LegendNANA
20:00 15.9 13.7 87 0.0 18 20   96.48     LegendNANA
21:00 15.1 12.9 87 0.0 16 13   96.50     LegendNANA
22:00 15.2 12.9 86 0.0 16 18   96.48     LegendNANA
23:00 14.4 12.7 89 0.0 16 21   96.42     LegendNANA

Notes on Data Quality.

Legend

  • E = Estimated
  • M = Missing
  • NA = Not Available*
  • [empty] = Indicates an unobserved value
Date modified: